Weather History for Cairo, IL

Change the Weather History Date:

Friday, March 23, 2012

  Actual Average Record
Temperature  
Mean Temperature 62 °F -  
Max Temperature 68 °F 59 °F 80 °F (1987)
Min Temperature 57 °F 39 °F 21 °F (1974)
Degree Days  
Heating Degree Days 2    
Growing Degree Days 12 (Base 50)    
Moisture  
Dew Point 54 °F    
Average Humidity 78    
Maximum Humidity 100    
Minimum Humidity 45    
Precipitation  
Precipitation 0.01 in - - ()
Sea Level Pressure  
Sea Level Pressure 29.90 in    
Wind  
Wind Speed 7 mph (South)    
Max Wind Speed 20 mph    
Max Gust Speed 28 mph    
Visibility 8 miles    
Events Fog , Rain , Thunderstorm    
Averages and records for this station are not official NWS values.
T = Trace of Precipitation, MM = Missing Value Source: NWS Daily Summary

Daily Weather History Graph

Daily Weather History Graph

Search for Another Location

Airport:

Trip Planner

Search our weather history database for the weather conditions in past years. The results will help you decide how hot, cold, wet, or windy it might be!

Date:

Astronomy

Mar. 23, 2012 Rise Set
Actual Time 6:55 AM CDT 7:11 PM CDT
Civil Twilight 6:29 AM CDT 7:37 PM CDT
Nautical Twilight 5:58 AM CDT 8:08 PM CDT
Astronomical Twilight 5:27 AM CDT 8:39 PM CDT
Moon 7:06 AM CDT (3/23) 8:30 PM CDT (3/23)
Length of Visible Light 13h 08m
Length of Day
12h 16m
New Moon, 1% of the Moon is Illuminated
Mar 23
New Moon
Mar 30
First Quarter
Apr 6
Full
Apr 13
Last Quarter
Apr 21
New

Hourly Weather History & Observations

Time (CDT) Temp. Dew Point Humidity Pressure Visibility Wind Dir Wind Speed Gust Speed Precip Events Conditions
12:15 AM 57.2 °F 55.4 °F 94% 29.99 in 1.8 mi NE 3.5 mph - N/A   Overcast
12:35 AM 59.0 °F 55.4 °F 88% 29.98 in 3.0 mi NE 4.6 mph - N/A   Overcast
12:55 AM 59.0 °F 57.2 °F 94% 29.99 in 5.0 mi ENE 4.6 mph - N/A   Overcast
1:15 AM 59.0 °F 57.2 °F 94% 29.98 in 5.0 mi Calm Calm - N/A   Mostly Cloudy
1:35 AM 59.0 °F 55.4 °F 88% 29.97 in 0.8 mi Calm Calm - N/A   Mostly Cloudy
1:55 AM 57.2 °F 55.4 °F 94% 29.97 in 0.8 mi ENE 4.6 mph - N/A   Overcast
2:15 AM 59.0 °F 57.2 °F 94% 29.97 in 0.5 mi East 3.5 mph - N/A Fog Fog
2:35 AM 59.0 °F 57.2 °F 94% 29.96 in 0.2 mi East 3.5 mph - N/A Fog Fog
2:55 AM 59.0 °F 57.2 °F 94% 29.95 in 0.5 mi Calm Calm - N/A Fog Fog
3:15 AM 59.0 °F 57.2 °F 94% 29.96 in 0.5 mi Calm Calm - N/A Fog Fog
3:35 AM 59.0 °F 57.2 °F 94% 29.96 in 0.8 mi Calm Calm - N/A   Overcast
3:55 AM 59.0 °F 57.2 °F 94% 29.95 in 1.2 mi Calm Calm - N/A   Overcast
4:15 AM 59.0 °F 57.2 °F 94% 29.96 in 1.2 mi Calm Calm - N/A   Overcast
4:35 AM 60.8 °F 59.0 °F 94% 29.96 in 7.0 mi South 3.5 mph - N/A   Overcast
4:55 AM 60.8 °F 59.0 °F 94% 29.95 in 10.0 mi SSE 5.8 mph - N/A   Scattered Clouds
5:15 AM 60.8 °F 59.0 °F 94% 29.94 in 10.0 mi SSE 4.6 mph - N/A   Scattered Clouds
5:35 AM 59.0 °F 59.0 °F 100% 29.93 in 10.0 mi SE 4.6 mph - N/A   Scattered Clouds
5:55 AM 60.8 °F 59.0 °F 94% 29.93 in 10.0 mi SSE 4.6 mph - N/A   Clear
6:15 AM 60.8 °F 59.0 °F 94% 29.92 in 10.0 mi SE 6.9 mph - N/A   Scattered Clouds
6:35 AM 59.0 °F 59.0 °F 100% 29.90 in 10.0 mi ESE 8.1 mph - N/A   Scattered Clouds
6:55 AM 59.0 °F 59.0 °F 100% 29.92 in 10.0 mi SSE 4.6 mph - N/A Thunderstorm Scattered Clouds
7:15 AM 59.0 °F 59.0 °F 100% 29.92 in 10.0 mi SE 5.8 mph - N/A   Scattered Clouds
7:35 AM 59.0 °F 59.0 °F 100% 29.94 in 10.0 mi SSW 5.8 mph - N/A   Clear
7:55 AM 60.8 °F 59.0 °F 94% 29.94 in 10.0 mi South 5.8 mph - N/A   Scattered Clouds
8:15 AM 60.8 °F 59.0 °F 94% 29.93 in 10.0 mi Calm Calm - N/A   Clear
8:35 AM 60.8 °F 59.0 °F 94% 29.91 in 10.0 mi ESE 3.5 mph - N/A   Scattered Clouds
8:55 AM 60.8 °F 59.0 °F 94% 29.89 in 10.0 mi East 5.8 mph - N/A   Scattered Clouds
9:15 AM 62.6 °F 59.0 °F 88% 29.88 in 10.0 mi ESE 13.8 mph - N/A Thunderstorm Clear
9:35 AM 64.4 °F 59.0 °F 83% 29.88 in 10.0 mi SE 9.2 mph - N/A   Scattered Clouds
9:55 AM 62.6 °F 59.0 °F 88% 29.90 in 10.0 mi SSE 6.9 mph - 0.01 in Rain Rain
10:15 AM 62.6 °F 57.2 °F 82% 29.90 in 10.0 mi SSE 6.9 mph - N/A Rain , Thunderstorm Light Thunderstorms and Rain
10:35 AM 64.4 °F 59.0 °F 83% 29.90 in 10.0 mi SSE 8.1 mph - N/A   Overcast
10:55 AM 66.2 °F 59.0 °F 78% 29.89 in 10.0 mi SSE 10.4 mph - N/A   Mostly Cloudy
11:15 AM 66.2 °F 59.0 °F 78% 29.89 in 10.0 mi South 12.7 mph 23.0 mph N/A   Overcast
11:35 AM 66.2 °F 57.2 °F 73% 29.89 in 10.0 mi South 16.1 mph 24.2 mph N/A   Mostly Cloudy
11:55 AM 66.2 °F 57.2 °F 73% 29.88 in 10.0 mi SSW 17.3 mph 24.2 mph N/A   Mostly Cloudy
12:15 PM 68.0 °F 55.4 °F 64% 29.87 in 10.0 mi SSW 18.4 mph 24.2 mph N/A   Scattered Clouds
12:35 PM 64.4 °F 55.4 °F 73% 29.88 in 10.0 mi SW 16.1 mph 23.0 mph N/A   Mostly Cloudy
12:55 PM 66.2 °F 55.4 °F 68% 29.87 in 10.0 mi SW 15.0 mph 23.0 mph N/A   Scattered Clouds
1:15 PM 68.0 °F 55.4 °F 64% 29.87 in 10.0 mi SSW 16.1 mph 21.9 mph N/A   Scattered Clouds
1:35 PM 68.0 °F 53.6 °F 60% 29.85 in 10.0 mi SW 18.4 mph 23.0 mph N/A   Scattered Clouds
1:55 PM 68.0 °F 51.8 °F 56% 29.84 in 10.0 mi SW 15.0 mph 25.3 mph N/A   Scattered Clouds
2:15 PM 68.0 °F 50.0 °F 52% 29.84 in 10.0 mi SSW 17.3 mph 27.6 mph N/A   Clear
2:35 PM 68.0 °F 48.2 °F 49% 29.83 in 10.0 mi SSW 18.4 mph 26.5 mph N/A   Clear
2:55 PM 66.2 °F 48.2 °F 52% 29.84 in 10.0 mi SSW 17.3 mph 23.0 mph N/A   Clear
3:15 PM 66.2 °F 48.2 °F 52% 29.84 in 10.0 mi SSW 19.6 mph 26.5 mph N/A   Clear
3:35 PM 66.2 °F 48.2 °F 52% 29.84 in 10.0 mi SW 11.5 mph 25.3 mph N/A   Scattered Clouds
3:55 PM 66.2 °F 48.2 °F 52% 29.84 in 10.0 mi SW 15.0 mph 24.2 mph N/A   Scattered Clouds
4:15 PM 68.0 °F 46.4 °F 46% 29.84 in 10.0 mi SW 11.5 mph 21.9 mph N/A   Scattered Clouds
4:35 PM 66.2 °F 46.4 °F 49% 29.85 in 10.0 mi SSW 12.7 mph 21.9 mph N/A   Scattered Clouds
4:55 PM 64.4 °F 42.8 °F 45% 29.85 in 10.0 mi SW 15.0 mph 26.5 mph N/A   Scattered Clouds
5:15 PM 62.6 °F 44.6 °F 52% 29.85 in 10.0 mi SW 9.2 mph 20.7 mph N/A   Clear
5:35 PM 62.6 °F 44.6 °F 52% 29.85 in 10.0 mi SW 15.0 mph 19.6 mph N/A   Mostly Cloudy
5:55 PM 62.6 °F 44.6 °F 52% 29.86 in 10.0 mi SW 16.1 mph 21.9 mph N/A   Overcast
6:15 PM 59.0 °F 46.4 °F 63% 29.87 in 10.0 mi SW 15.0 mph 25.3 mph N/A Rain Rain
6:35 PM 59.0 °F 46.4 °F 63% 29.87 in 10.0 mi SSW 13.8 mph 19.6 mph N/A   Overcast
6:55 PM 57.2 °F 46.4 °F 67% 29.88 in 10.0 mi SSW 11.5 mph 16.1 mph N/A   Mostly Cloudy
7:15 PM 57.2 °F 46.4 °F 67% 29.87 in 10.0 mi South 11.5 mph - N/A   Scattered Clouds
7:35 PM 57.2 °F 48.2 °F 72% 29.87 in 10.0 mi SSW 9.2 mph 16.1 mph N/A   Scattered Clouds
7:55 PM 57.2 °F 48.2 °F 72% 29.88 in 10.0 mi SSW 8.1 mph 16.1 mph N/A   Scattered Clouds
8:15 PM 55.4 °F 48.2 °F 77% 29.88 in 10.0 mi SSW 8.1 mph - N/A   Clear
8:35 PM 55.4 °F 48.2 °F 77% 29.88 in 10.0 mi SSW 6.9 mph - N/A   Clear
8:55 PM 55.4 °F 48.2 °F 77% 29.88 in 10.0 mi SSW 5.8 mph - N/A   Scattered Clouds
9:15 PM 55.4 °F 48.2 °F 77% 29.89 in 10.0 mi SSW 5.8 mph - N/A   Clear
9:35 PM 53.6 °F 48.2 °F 82% 29.89 in 10.0 mi SSW 5.8 mph - N/A   Clear
9:55 PM 53.6 °F 48.2 °F 82% 29.89 in 10.0 mi SW 5.8 mph - N/A   Clear
10:15 PM 53.6 °F 48.2 °F 82% 29.89 in 10.0 mi SSW 6.9 mph - N/A   Scattered Clouds
10:35 PM 55.4 °F 48.2 °F 77% 29.89 in 10.0 mi SSW 4.6 mph - N/A   Overcast
10:55 PM 55.4 °F 48.2 °F 77% 29.89 in 10.0 mi SW 6.9 mph - N/A   Mostly Cloudy
11:15 PM 53.6 °F 48.2 °F 82% 29.89 in 10.0 mi SW 5.8 mph - N/A   Scattered Clouds
11:35 PM 53.6 °F 46.4 °F 77% 29.88 in 10.0 mi SW 6.9 mph - N/A   Mostly Cloudy
11:55 PM 53.6 °F 48.2 °F 82% 29.87 in 10.0 mi WSW 5.8 mph - N/A   Mostly Cloudy